Weather History for KBPC - January, 2013

Change the Weather History Date:

Sunday, January 20, 2013

  Actual Average Record
Temperature  
Mean Temperature 43 °F -  
Max Temperature 62 °F - - ()
Min Temperature 24 °F - - ()
Degree Days  
Heating Degree Days 22    
Moisture  
Dew Point 24 °F    
Average Humidity 57    
Maximum Humidity 87    
Minimum Humidity 16    
Precipitation  
Precipitation 0.00 in - - ()
Sea Level Pressure  
Sea Level Pressure 30.18 in    
Wind  
Wind Speed 8 mph (West)    
Max Wind Speed 16 mph    
Max Gust Speed 23 mph    
Visibility 10 miles    
Events      
Averages and records for this station are not official NWS values.
T = Trace of Precipitation, MM = Missing Value Source: NWS Daily Summary

Daily Weather History Graph

Daily Weather History Graph

Search for Another Location

Airport or City:

Trip Planner

Search our weather history database for the weather conditions in past years. The results will help you decide how hot, cold, wet, or windy it might be!

Date:

Astronomy

Jan. 20, 2013 Rise Set
Actual Time 7:51 AM CST 5:59 PM CST
Civil Twilight 7:24 AM CST 6:26 PM CST
Nautical Twilight 6:53 AM CST 6:57 PM CST
Astronomical Twilight 6:22 AM CST 7:28 PM CST
Moon 1:00 PM CST (1/20) 2:26 AM CST (1/20)
Length of Visible Light 11h 02m
Length of Day
10h 07m
Waxing Gibbous, 66% of the Moon is Illuminated
Jan 20
Waxing Gibbous
Jan 26
Full
Feb 3
Last Quarter
Feb 10
New
Feb 17
First Quarter

Hourly Weather History & Observations

Time (CST) Temp. Windchill Dew Point Humidity Pressure Visibility Wind Dir Wind Speed Gust Speed Precip Events Conditions
12:15 AM 30.2 °F 23.4 °F 23.0 °F 75% 30.26 in 10.0 mi WSW 6.9 mph - N/A   Clear
12:35 AM 28.4 °F 19.7 °F 23.0 °F 80% 30.26 in 10.0 mi SW 9.2 mph - N/A   Clear
1:15 AM 30.2 °F 21.9 °F 23.0 °F 75% 30.26 in 10.0 mi SW 9.2 mph - N/A   Clear
1:35 AM 30.2 °F 23.4 °F 24.8 °F 80% 30.25 in 10.0 mi SW 6.9 mph - N/A   Clear
1:55 AM 30.2 °F 22.6 °F 23.0 °F 75% 30.25 in 10.0 mi WSW 8.1 mph - N/A   Clear
2:15 AM 30.2 °F 23.4 °F 24.8 °F 80% 30.25 in 10.0 mi WSW 6.9 mph - N/A   Clear
2:35 AM 30.2 °F 21.9 °F 24.8 °F 80% 30.26 in 10.0 mi WSW 9.2 mph - N/A   Clear
2:55 AM 32.0 °F 24.2 °F 24.8 °F 75% 30.25 in 10.0 mi SW 9.2 mph - N/A   Clear
3:15 AM 30.2 °F 23.4 °F 24.8 °F 80% 30.25 in 10.0 mi SW 6.9 mph - N/A   Clear
3:35 AM 30.2 °F 23.4 °F 23.0 °F 75% 30.24 in 10.0 mi SW 6.9 mph - N/A   Clear
3:55 AM 32.0 °F - 23.0 °F 69% 30.24 in 10.0 mi Calm Calm - N/A   Clear
4:15 AM 32.0 °F 28.7 °F 23.0 °F 69% 30.23 in 10.0 mi SW 3.5 mph - N/A   Clear
4:35 AM 28.4 °F 21.2 °F 23.0 °F 80% 30.22 in 10.0 mi SW 6.9 mph - N/A   Clear
4:55 AM 30.2 °F 26.7 °F 23.0 °F 75% 30.23 in 10.0 mi WSW 3.5 mph - N/A   Clear
5:15 AM 28.4 °F - 23.0 °F 80% 30.21 in 10.0 mi Calm Calm - N/A   Clear
5:35 AM 28.4 °F 23.3 °F 23.0 °F 80% 30.20 in 10.0 mi South 4.6 mph - N/A   Clear
6:15 AM 28.4 °F 21.2 °F 23.0 °F 80% 30.20 in 10.0 mi SW 6.9 mph - N/A   Clear
6:35 AM 24.8 °F 19.1 °F 21.2 °F 86% 30.21 in 10.0 mi WSW 4.6 mph - N/A   Clear
6:55 AM 24.8 °F 16.9 °F 21.2 °F 86% 30.20 in 10.0 mi SSW 6.9 mph - N/A   Clear
7:15 AM 26.6 °F 19.1 °F 23.0 °F 86% 30.20 in 10.0 mi SW 6.9 mph - N/A   Clear
7:35 AM 28.4 °F 19.1 °F 23.0 °F 80% 30.19 in 10.0 mi SW 10.4 mph - N/A   Clear
7:55 AM 26.6 °F 16.2 °F 23.0 °F 86% 30.19 in 10.0 mi SW 11.5 mph - N/A   Clear
8:15 AM 26.6 °F - 23.0 °F 86% 30.19 in 10.0 mi Calm Calm - N/A   Clear
8:35 AM 28.4 °F - 23.0 °F 80% 30.19 in 10.0 mi Calm Calm - N/A   Clear
8:55 AM 30.2 °F 26.7 °F 26.6 °F 86% 30.18 in 10.0 mi WSW 3.5 mph - N/A   Clear
9:15 AM 33.8 °F 29.6 °F 26.6 °F 75% 30.18 in 10.0 mi WSW 4.6 mph - N/A   Clear
9:35 AM 35.6 °F 32.8 °F 28.4 °F 75% 30.19 in 10.0 mi West 3.5 mph - N/A   Clear
9:55 AM 37.4 °F - 28.4 °F 70% 30.18 in 10.0 mi Calm Calm - N/A   Clear
10:15 AM 42.8 °F 39.3 °F 28.4 °F 57% 30.18 in 10.0 mi SSW 5.8 mph - N/A   Clear
10:35 AM 46.4 °F 43.5 °F 28.4 °F 50% 30.18 in 10.0 mi South 5.8 mph - N/A   Clear
10:55 AM 50.0 °F - 26.6 °F 40% 30.18 in 10.0 mi SSW 8.1 mph - N/A   Clear
11:15 AM 53.6 °F - 26.6 °F 35% 30.17 in 10.0 mi SSW 12.7 mph 17.3 mph N/A   Clear
11:35 AM 55.4 °F - 24.8 °F 31% 30.16 in 10.0 mi SSW 16.1 mph 20.7 mph N/A   Clear
11:55 AM 57.2 °F - 24.8 °F 29% 30.15 in 10.0 mi SW 15.0 mph 18.4 mph N/A   Clear
12:15 PM 59.0 °F - 26.6 °F 29% 30.13 in 10.0 mi SSW 15.0 mph - N/A   Clear
12:35 PM 59.0 °F - 23.0 °F 25% 30.12 in 10.0 mi SW 15.0 mph 23.0 mph N/A   Clear
12:55 PM 60.8 °F - 23.0 °F 23% 30.10 in 10.0 mi SW 15.0 mph 21.9 mph N/A   Clear
1:15 PM 60.8 °F - 23.0 °F 23% 30.09 in 10.0 mi SW 12.7 mph 18.4 mph N/A   Clear
1:35 PM 62.6 °F - 21.2 °F 20% 30.08 in 10.0 mi WSW 10.4 mph 19.6 mph N/A   Clear
1:55 PM 62.6 °F - 21.2 °F 20% 30.08 in 10.0 mi WSW 15.0 mph 19.6 mph N/A   Clear
2:15 PM 62.6 °F - 17.6 °F 18% 30.07 in 10.0 mi West 12.7 mph 20.7 mph N/A   Clear
2:35 PM 62.6 °F - 17.6 °F 18% 30.07 in 10.0 mi West 8.1 mph - N/A   Clear
2:55 PM 62.6 °F - 19.4 °F 19% 30.06 in 10.0 mi West 8.1 mph - N/A   Clear
3:15 PM 62.6 °F - 17.6 °F 18% 30.06 in 10.0 mi NW 12.7 mph 18.4 mph N/A   Clear
3:35 PM 62.6 °F - 15.8 °F 16% 30.07 in 10.0 mi NNW 10.4 mph 18.4 mph N/A   Clear
3:55 PM 62.6 °F - 17.6 °F 18% 30.07 in 10.0 mi NNW 13.8 mph - N/A   Clear
4:15 PM 60.8 °F - 17.6 °F 19% 30.07 in 10.0 mi NNW 12.7 mph 18.4 mph N/A   Clear
4:35 PM 59.0 °F - 19.4 °F 22% 30.08 in 10.0 mi North 15.0 mph - N/A   Clear
4:55 PM 59.0 °F - 19.4 °F 22% 30.09 in 10.0 mi North 16.1 mph 20.7 mph N/A   Clear
5:15 PM 55.4 °F - 21.2 °F 26% 30.10 in 10.0 mi North 13.8 mph 20.7 mph N/A   Clear
5:35 PM 55.4 °F - 21.2 °F 26% 30.11 in 10.0 mi North 10.4 mph - N/A   Clear
5:55 PM 51.8 °F - 23.0 °F 33% 30.12 in 10.0 mi North 10.4 mph - N/A   Clear
6:15 PM 50.0 °F - 23.0 °F 35% 30.13 in 10.0 mi North 10.4 mph - N/A   Clear
6:35 PM 46.4 °F 41.9 °F 23.0 °F 40% 30.14 in 10.0 mi North 9.2 mph - N/A   Clear
6:55 PM 44.6 °F 39.7 °F 23.0 °F 43% 30.14 in 10.0 mi North 9.2 mph - N/A   Clear
7:15 PM 44.6 °F 40.2 °F 24.8 °F 46% 30.16 in 10.0 mi North 8.1 mph - N/A   Clear
7:35 PM 46.4 °F 40.7 °F 26.6 °F 46% 30.17 in 10.0 mi NNE 12.7 mph - N/A   Clear
7:55 PM 44.6 °F 38.8 °F 28.4 °F 53% 30.18 in 10.0 mi NE 11.5 mph - N/A   Clear
8:15 PM 44.6 °F 38.8 °F 30.2 °F 57% 30.19 in 10.0 mi NE 11.5 mph - N/A   Clear
8:35 PM 42.8 °F 37.0 °F 30.2 °F 61% 30.19 in 10.0 mi ENE 10.4 mph 17.3 mph N/A   Clear
8:55 PM 41.0 °F 35.8 °F 30.2 °F 65% 30.20 in 10.0 mi NE 8.1 mph - N/A   Clear
9:15 PM 37.4 °F 32.1 °F 28.4 °F 70% 30.21 in 10.0 mi North 6.9 mph - N/A   Clear
9:35 PM 35.6 °F 29.9 °F 28.4 °F 75% 30.22 in 10.0 mi North 6.9 mph - N/A   Clear
9:55 PM 35.6 °F 29.2 °F 28.4 °F 75% 30.23 in 10.0 mi North 8.1 mph - N/A   Clear
10:15 PM 35.6 °F 28.0 °F 28.4 °F 75% 30.24 in 10.0 mi NNE 10.4 mph - N/A   Clear
10:35 PM 35.6 °F 28.0 °F 26.6 °F 70% 30.25 in 10.0 mi NNE 10.4 mph - N/A   Clear
10:55 PM 33.8 °F 24.8 °F 28.4 °F 81% 30.26 in 10.0 mi NNE 12.7 mph - N/A   Clear
11:15 PM 33.8 °F 24.8 °F 28.4 °F 81% 30.27 in 10.0 mi NNE 12.7 mph 19.6 mph N/A   Clear
11:35 PM 32.0 °F 22.5 °F 28.4 °F 87% 30.29 in 10.0 mi NE 12.7 mph - N/A   Clear
11:55 PM 32.0 °F 21.6 °F 26.6 °F 80% 30.30 in 10.0 mi NE 15.0 mph 18.4 mph N/A   Clear